Location: Unspecified
(64.9000°N, 0.0000°E)
Time: 02:47:26
(UTC+00:00)

Vanguard 1 - Pass Details

Date: 24 June 2019
Orbit: 653 x 3830 km, 34.3° (Epoch: 22 July)

Event Time Altitude Azimuth Distance (km) Brightness Sun altitude
Rises 01:51:33 0° 203° (SSW) 7,417 13.8 0.8°
Reaches altitude 10° 02:04:10 10° 170° (S) 5,413 13.4 1.4°
Maximum altitude 02:05:41 10° 165° (SSE) 5,248 13.4 1.5°
Drops below altitude 10° 02:07:08 10° 159° (SSE) 5,118 13.4 1.5°
Sets 02:15:55 0° 122° (ESE) 5,133 13.7 2.0°
